Year,Month,Day,Hour,Minute,Value (Times are PST for temperature in C)
2009,07,03,00,00,12.70
2009,07,03,00,01,12.70
2009,07,03,00,02,12.70
2009,07,03,00,03,12.70
2009,07,03,00,04,12.70
2009,07,03,00,05,12.70
2009,07,03,00,06,12.60
2009,07,03,00,07,12.60
2009,07,03,00,08,12.60
2009,07,03,00,09,12.60
2009,07,03,00,10,12.60
2009,07,03,00,11,12.60
2009,07,03,00,12,12.50
2009,07,03,00,13,12.50
2009,07,03,00,14,12.50
2009,07,03,00,15,12.40
2009,07,03,00,16,12.40
2009,07,03,00,17,12.40
2009,07,03,00,18,12.40
2009,07,03,00,19,12.40
2009,07,03,00,20,12.40
2009,07,03,00,21,12.40
2009,07,03,00,22,12.50
2009,07,03,00,23,12.50
2009,07,03,00,24,12.60
2009,07,03,00,25,12.60
2009,07,03,00,26,12.60
2009,07,03,00,27,12.70
2009,07,03,00,28,12.70
2009,07,03,00,29,12.70
2009,07,03,00,30,12.80
2009,07,03,00,31,12.80
2009,07,03,00,32,12.90
2009,07,03,00,33,12.90
2009,07,03,00,34,12.90
2009,07,03,00,35,13.00
2009,07,03,00,36,13.00
2009,07,03,00,37,13.00
2009,07,03,00,38,12.90
2009,07,03,00,39,12.90
2009,07,03,00,40,12.90
2009,07,03,00,41,12.90
2009,07,03,00,42,12.80
2009,07,03,00,43,12.80
2009,07,03,00,44,12.80
2009,07,03,00,45,12.80
2009,07,03,00,46,12.70
2009,07,03,00,47,12.70
2009,07,03,00,48,12.70
2009,07,03,00,49,12.60
2009,07,03,00,50,12.60
2009,07,03,00,51,12.60
2009,07,03,00,52,12.50
2009,07,03,00,53,12.50
2009,07,03,00,54,12.40
2009,07,03,00,55,12.40
2009,07,03,00,56,12.30
2009,07,03,00,57,12.30
2009,07,03,00,58,12.30
2009,07,03,00,59,12.30
2009,07,03,01,00,12.30
2009,07,03,01,01,12.30
2009,07,03,01,02,12.30
2009,07,03,01,03,12.30
2009,07,03,01,04,12.30
2009,07,03,01,05,12.30
2009,07,03,01,06,12.30
2009,07,03,01,07,12.30
2009,07,03,01,08,12.30
2009,07,03,01,09,12.20
2009,07,03,01,10,12.20
2009,07,03,01,11,12.20
2009,07,03,01,12,12.20
2009,07,03,01,13,12.20
2009,07,03,01,14,12.20
2009,07,03,01,15,12.20
2009,07,03,01,16,12.20
2009,07,03,01,17,12.20
2009,07,03,01,18,12.20
2009,07,03,01,19,12.20
2009,07,03,01,20,12.20
2009,07,03,01,21,12.20
2009,07,03,01,22,12.20
2009,07,03,01,23,12.20
2009,07,03,01,24,12.20
2009,07,03,01,25,12.30
2009,07,03,01,26,12.30
2009,07,03,01,27,12.30
2009,07,03,01,28,12.30
2009,07,03,01,29,12.30
2009,07,03,01,30,12.30
2009,07,03,01,31,12.30
2009,07,03,01,32,12.30
2009,07,03,01,33,12.20
2009,07,03,01,34,12.20
2009,07,03,01,35,12.20
2009,07,03,01,36,12.20
2009,07,03,01,37,12.20
2009,07,03,01,38,12.20
2009,07,03,01,39,12.20
2009,07,03,01,40,12.10
2009,07,03,01,41,12.10
2009,07,03,01,42,12.20
2009,07,03,01,43,12.20
2009,07,03,01,44,12.30
2009,07,03,01,45,12.30
2009,07,03,01,46,12.30
2009,07,03,01,47,12.30
2009,07,03,01,48,12.30
2009,07,03,01,49,12.30
2009,07,03,01,50,12.40
2009,07,03,01,51,12.40
2009,07,03,01,52,12.40
2009,07,03,01,53,12.40
2009,07,03,01,54,12.50
2009,07,03,01,55,12.50
2009,07,03,01,56,12.50
2009,07,03,01,57,12.50
2009,07,03,01,58,12.60
2009,07,03,01,59,12.50
2009,07,03,02,00,12.60
2009,07,03,02,01,12.50
2009,07,03,02,02,12.50
2009,07,03,02,03,12.50
2009,07,03,02,04,12.50
2009,07,03,02,05,12.50
2009,07,03,02,06,12.40
2009,07,03,02,07,12.50
2009,07,03,02,08,12.50
2009,07,03,02,09,12.50
2009,07,03,02,10,12.60
2009,07,03,02,11,12.60
2009,07,03,02,12,12.60
2009,07,03,02,13,12.60
2009,07,03,02,14,12.60
2009,07,03,02,15,12.50
2009,07,03,02,16,12.50
2009,07,03,02,17,12.40
2009,07,03,02,18,12.40
2009,07,03,02,19,12.40
2009,07,03,02,20,12.40
2009,07,03,02,21,12.40
2009,07,03,02,22,12.40
2009,07,03,02,23,12.40
2009,07,03,02,24,12.30
2009,07,03,02,25,12.30
2009,07,03,02,26,12.30
2009,07,03,02,27,12.30
2009,07,03,02,28,12.20
2009,07,03,02,29,12.20
2009,07,03,02,30,12.20
2009,07,03,02,31,12.20
2009,07,03,02,32,12.10
2009,07,03,02,33,12.10
2009,07,03,02,34,12.10
2009,07,03,02,35,12.10
2009,07,03,02,36,12.10
2009,07,03,02,37,12.10
2009,07,03,02,38,12.10
2009,07,03,02,39,12.10
2009,07,03,02,40,12.10
2009,07,03,02,41,12.10
2009,07,03,02,42,12.10
2009,07,03,02,43,12.10
2009,07,03,02,44,12.10
2009,07,03,02,45,12.10
2009,07,03,02,46,12.10
2009,07,03,02,47,12.20
2009,07,03,02,48,12.20
2009,07,03,02,49,12.20
2009,07,03,02,50,12.30
2009,07,03,02,51,12.30
2009,07,03,02,52,12.30
2009,07,03,02,53,12.30
2009,07,03,02,54,12.30
2009,07,03,02,55,12.30
2009,07,03,02,56,12.40
2009,07,03,02,57,12.40
2009,07,03,02,58,12.40
2009,07,03,02,59,12.40
2009,07,03,03,00,12.40
2009,07,03,03,01,12.50
2009,07,03,03,02,12.40
2009,07,03,03,03,12.40
2009,07,03,03,04,12.40
2009,07,03,03,05,12.40
2009,07,03,03,06,12.40
2009,07,03,03,07,12.40
2009,07,03,03,08,12.40
2009,07,03,03,09,12.40
2009,07,03,03,10,12.40
2009,07,03,03,11,12.30
2009,07,03,03,12,12.30
2009,07,03,03,13,12.30
2009,07,03,03,14,12.30
2009,07,03,03,15,12.30
2009,07,03,03,16,12.30
2009,07,03,03,17,12.30
2009,07,03,03,18,12.30
2009,07,03,03,19,12.30
2009,07,03,03,20,12.30
2009,07,03,03,21,12.20
2009,07,03,03,22,12.20
2009,07,03,03,23,12.20
2009,07,03,03,24,12.20
2009,07,03,03,25,12.20
2009,07,03,03,26,12.20
2009,07,03,03,27,12.20
2009,07,03,03,28,12.10
2009,07,03,03,29,12.10
2009,07,03,03,30,12.00
2009,07,03,03,31,12.00
2009,07,03,03,32,11.90
2009,07,03,03,33,11.90
2009,07,03,03,34,11.90
2009,07,03,03,35,11.90
2009,07,03,03,36,11.90
2009,07,03,03,37,11.90
2009,07,03,03,38,11.90
2009,07,03,03,39,11.90
2009,07,03,03,40,11.90
2009,07,03,03,41,11.90
2009,07,03,03,42,11.80
2009,07,03,03,43,11.80
2009,07,03,03,44,11.80
2009,07,03,03,45,11.80
2009,07,03,03,46,11.90
2009,07,03,03,47,11.90
2009,07,03,03,48,11.90
2009,07,03,03,49,11.90
2009,07,03,03,50,11.90
2009,07,03,03,51,11.90
2009,07,03,03,52,11.80
2009,07,03,03,53,11.80
2009,07,03,03,54,11.80
2009,07,03,03,55,11.80
2009,07,03,03,56,11.80
2009,07,03,03,57,11.80
2009,07,03,03,58,11.80
2009,07,03,03,59,11.80
2009,07,03,04,00,11.80
2009,07,03,04,01,11.80
2009,07,03,04,02,11.80
2009,07,03,04,03,11.80
2009,07,03,04,04,11.70
2009,07,03,04,05,11.70
2009,07,03,04,06,11.70
2009,07,03,04,07,11.70
2009,07,03,04,08,11.70
2009,07,03,04,09,11.70
2009,07,03,04,10,11.70
2009,07,03,04,11,11.70
2009,07,03,04,12,11.70
2009,07,03,04,13,11.70
2009,07,03,04,14,11.60
2009,07,03,04,15,11.60
2009,07,03,04,16,11.60
2009,07,03,04,17,11.60
2009,07,03,04,18,11.60
2009,07,03,04,19,11.60
2009,07,03,04,20,11.60
2009,07,03,04,21,11.60
2009,07,03,04,22,11.60
2009,07,03,04,23,11.50
2009,07,03,04,24,11.50
2009,07,03,04,25,11.50
2009,07,03,04,26,11.40
2009,07,03,04,27,11.40
2009,07,03,04,28,11.40
2009,07,03,04,29,11.40
2009,07,03,04,30,11.40
2009,07,03,04,31,11.40
2009,07,03,04,32,11.40
2009,07,03,04,33,11.40
2009,07,03,04,34,11.40
2009,07,03,04,35,11.40
2009,07,03,04,36,11.40
2009,07,03,04,37,11.40
2009,07,03,04,38,11.40
2009,07,03,04,39,11.40
2009,07,03,04,40,11.40
2009,07,03,04,41,11.40
2009,07,03,04,42,11.40
2009,07,03,04,43,11.40
2009,07,03,04,44,11.40
2009,07,03,04,45,11.40
2009,07,03,04,46,11.40
2009,07,03,04,47,11.40
2009,07,03,04,48,11.40
2009,07,03,04,49,11.40
2009,07,03,04,50,11.40
2009,07,03,04,51,11.40
2009,07,03,04,52,11.40
2009,07,03,04,53,11.40
2009,07,03,04,54,11.40
2009,07,03,04,55,11.40
2009,07,03,04,56,11.50
2009,07,03,04,57,11.50
2009,07,03,04,58,11.50
2009,07,03,04,59,11.60
2009,07,03,05,00,11.60
2009,07,03,05,01,11.60
2009,07,03,05,02,11.50
2009,07,03,05,03,11.50
2009,07,03,05,04,11.50
2009,07,03,05,05,11.50
2009,07,03,05,06,11.40
2009,07,03,05,07,11.40
2009,07,03,05,08,11.40
2009,07,03,05,09,11.40
2009,07,03,05,10,11.40
2009,07,03,05,11,11.50
2009,07,03,05,12,11.50
2009,07,03,05,13,11.50
2009,07,03,05,14,11.50
2009,07,03,05,15,11.50
2009,07,03,05,16,11.50
2009,07,03,05,17,11.60
2009,07,03,05,18,11.60
2009,07,03,05,19,11.60
2009,07,03,05,20,11.60
2009,07,03,05,21,11.70
2009,07,03,05,22,11.70
2009,07,03,05,23,11.70
2009,07,03,05,24,11.70
2009,07,03,05,25,11.80
2009,07,03,05,26,11.80
2009,07,03,05,27,11.80
2009,07,03,05,28,11.80
2009,07,03,05,29,11.80
2009,07,03,05,30,11.70
2009,07,03,05,31,11.70
2009,07,03,05,32,11.70
2009,07,03,05,33,11.70
2009,07,03,05,34,11.70
2009,07,03,05,35,11.60
2009,07,03,05,36,11.60
2009,07,03,05,37,11.50
2009,07,03,05,38,11.50
2009,07,03,05,39,11.50
2009,07,03,05,40,11.40
2009,07,03,05,41,11.40
2009,07,03,05,42,11.40
2009,07,03,05,43,11.40
2009,07,03,05,44,11.40
2009,07,03,05,45,11.40
2009,07,03,05,46,11.40
2009,07,03,05,47,11.40
2009,07,03,05,48,11.30
2009,07,03,05,49,11.30
2009,07,03,05,50,11.30
2009,07,03,05,51,11.30
2009,07,03,05,52,11.30
2009,07,03,05,53,11.30
2009,07,03,05,54,11.30
2009,07,03,05,55,11.30
2009,07,03,05,56,11.30
2009,07,03,05,57,11.40
2009,07,03,05,58,11.40
2009,07,03,05,59,11.40
2009,07,03,06,00,11.40
2009,07,03,06,01,11.30
2009,07,03,06,02,11.30
2009,07,03,06,03,11.30
2009,07,03,06,04,11.30
2009,07,03,06,05,11.30
2009,07,03,06,06,11.30
2009,07,03,06,07,11.30
2009,07,03,06,08,11.30
2009,07,03,06,09,11.40
2009,07,03,06,10,11.50
2009,07,03,06,11,11.50
2009,07,03,06,12,11.50
2009,07,03,06,13,11.50
2009,07,03,06,14,11.50
2009,07,03,06,15,11.50
2009,07,03,06,16,11.50
2009,07,03,06,17,11.60
2009,07,03,06,18,11.60
2009,07,03,06,19,11.70
2009,07,03,06,20,11.80
2009,07,03,06,21,11.90
2009,07,03,06,22,12.00
2009,07,03,06,23,12.10
2009,07,03,06,24,12.10
2009,07,03,06,25,12.20
2009,07,03,06,26,12.20
2009,07,03,06,27,12.20
2009,07,03,06,28,12.20
2009,07,03,06,29,12.30
2009,07,03,06,30,12.30
2009,07,03,06,31,12.30
2009,07,03,06,32,12.30
2009,07,03,06,33,12.30
2009,07,03,06,34,12.30
2009,07,03,06,35,12.30
2009,07,03,06,36,12.30
2009,07,03,06,37,12.30
2009,07,03,06,38,12.40
2009,07,03,06,39,12.50
2009,07,03,06,40,12.50
2009,07,03,06,41,12.60
2009,07,03,06,42,12.70
2009,07,03,06,43,12.80
2009,07,03,06,44,12.80
2009,07,03,06,45,12.80
2009,07,03,06,46,12.90
2009,07,03,06,47,12.90
2009,07,03,06,48,13.00
2009,07,03,06,49,13.00
2009,07,03,06,50,13.00
2009,07,03,06,51,13.10
2009,07,03,06,52,13.10
2009,07,03,06,53,13.10
2009,07,03,06,54,13.10
2009,07,03,06,55,13.10
2009,07,03,06,56,13.10
2009,07,03,06,57,13.10
2009,07,03,06,58,13.20
2009,07,03,06,59,13.20
2009,07,03,07,00,13.20
2009,07,03,07,01,13.30
2009,07,03,07,02,13.30
2009,07,03,07,03,13.30
2009,07,03,07,04,13.30
2009,07,03,07,05,13.30
2009,07,03,07,06,13.30
2009,07,03,07,07,13.30
2009,07,03,07,08,13.30
2009,07,03,07,09,13.30
2009,07,03,07,10,13.20
2009,07,03,07,11,13.30
2009,07,03,07,12,13.30
2009,07,03,07,13,13.30
2009,07,03,07,14,13.40
2009,07,03,07,15,13.40
2009,07,03,07,16,13.50
2009,07,03,07,17,13.50
2009,07,03,07,18,13.60
2009,07,03,07,19,13.70
2009,07,03,07,20,13.80
2009,07,03,07,21,13.90
2009,07,03,07,22,14.00
2009,07,03,07,23,14.10
2009,07,03,07,24,14.20
2009,07,03,07,25,14.30
2009,07,03,07,26,14.30
2009,07,03,07,27,14.40
2009,07,03,07,28,14.50
2009,07,03,07,29,14.50
2009,07,03,07,30,14.60
2009,07,03,07,31,14.70
2009,07,03,07,32,14.70
2009,07,03,07,33,14.80
2009,07,03,07,34,14.80
2009,07,03,07,35,14.90
2009,07,03,07,36,15.00
2009,07,03,07,37,15.00
2009,07,03,07,38,15.00
2009,07,03,07,39,15.00
2009,07,03,07,40,15.10
2009,07,03,07,41,15.20
2009,07,03,07,42,15.30
2009,07,03,07,43,15.30
2009,07,03,07,44,15.40
2009,07,03,07,45,15.40
2009,07,03,07,46,15.50
2009,07,03,07,47,15.50
2009,07,03,07,48,15.50
2009,07,03,07,49,15.50
2009,07,03,07,50,15.50
2009,07,03,07,51,15.60
2009,07,03,07,52,15.60
2009,07,03,07,53,15.60
2009,07,03,07,54,15.70
2009,07,03,07,55,15.70
2009,07,03,07,56,15.80
2009,07,03,07,57,15.80
2009,07,03,07,58,15.90
2009,07,03,07,59,15.90
2009,07,03,08,00,16.00
2009,07,03,08,01,16.00
2009,07,03,08,02,16.10
2009,07,03,08,03,16.10
2009,07,03,08,04,16.10
2009,07,03,08,05,16.20
2009,07,03,08,06,16.20
2009,07,03,08,07,16.20
2009,07,03,08,08,16.30
2009,07,03,08,09,16.40
2009,07,03,08,10,16.50
2009,07,03,08,11,16.60
2009,07,03,08,12,16.70
2009,07,03,08,13,16.80
2009,07,03,08,14,16.80
2009,07,03,08,15,16.90
2009,07,03,08,16,17.00
2009,07,03,08,17,17.00
2009,07,03,08,18,17.10
2009,07,03,08,19,17.20
2009,07,03,08,20,17.30
2009,07,03,08,21,17.30
2009,07,03,08,22,17.40
2009,07,03,08,23,17.50
2009,07,03,08,24,17.60
2009,07,03,08,25,17.70
2009,07,03,08,26,17.80
2009,07,03,08,27,17.90
2009,07,03,08,28,18.00
2009,07,03,08,29,18.00
2009,07,03,08,30,18.10
2009,07,03,08,31,18.20
2009,07,03,08,32,18.30
2009,07,03,08,33,18.30
2009,07,03,08,34,18.40
2009,07,03,08,35,18.50
2009,07,03,08,36,18.50
2009,07,03,08,37,18.60
2009,07,03,08,38,18.60
2009,07,03,08,39,18.60
2009,07,03,08,40,18.70
2009,07,03,08,41,18.80
2009,07,03,08,42,18.80
2009,07,03,08,43,18.90
2009,07,03,08,44,19.00
2009,07,03,08,45,19.10
2009,07,03,08,46,19.20
2009,07,03,08,47,19.30
2009,07,03,08,48,19.40
2009,07,03,08,49,19.50
2009,07,03,08,50,19.50
2009,07,03,08,51,19.60
2009,07,03,08,52,19.70
2009,07,03,08,53,19.70
2009,07,03,08,54,19.70
2009,07,03,08,55,19.60
2009,07,03,08,56,19.50
2009,07,03,08,57,19.50
2009,07,03,08,58,19.40
2009,07,03,08,59,19.30
2009,07,03,09,00,19.20
2009,07,03,09,01,19.10
2009,07,03,09,02,19.00
2009,07,03,09,03,18.90
2009,07,03,09,04,18.90
2009,07,03,09,05,18.80
2009,07,03,09,06,18.70
2009,07,03,09,07,18.60
2009,07,03,09,08,18.40
2009,07,03,09,09,18.30
2009,07,03,09,10,18.20
2009,07,03,09,11,18.20
2009,07,03,09,12,18.10
2009,07,03,09,13,18.00
2009,07,03,09,14,18.00
2009,07,03,09,15,17.90
2009,07,03,09,16,17.80
2009,07,03,09,17,17.80
2009,07,03,09,18,17.70
2009,07,03,09,19,17.70
2009,07,03,09,20,17.70
2009,07,03,09,21,17.60
2009,07,03,09,22,17.70
2009,07,03,09,23,17.70
2009,07,03,09,24,17.70
2009,07,03,09,25,17.80
2009,07,03,09,26,17.80
2009,07,03,09,27,17.90
2009,07,03,09,28,17.90
2009,07,03,09,29,18.00
2009,07,03,09,30,18.00
2009,07,03,09,31,18.00
2009,07,03,09,32,18.00
2009,07,03,09,33,18.10
2009,07,03,09,34,18.10
2009,07,03,09,35,18.10
2009,07,03,09,36,18.10
2009,07,03,09,37,18.20
2009,07,03,09,38,18.20
2009,07,03,09,39,18.20
2009,07,03,09,40,18.30
2009,07,03,09,41,18.30
2009,07,03,09,42,18.30
2009,07,03,09,43,18.30
2009,07,03,09,44,18.30
2009,07,03,09,45,18.30
2009,07,03,09,46,18.30
2009,07,03,09,47,18.40
2009,07,03,09,48,18.40
2009,07,03,09,49,18.40
2009,07,03,09,50,18.40
2009,07,03,09,51,18.40
2009,07,03,09,52,18.40
2009,07,03,09,53,18.40
2009,07,03,09,54,18.40
2009,07,03,09,55,18.30
2009,07,03,09,56,18.30
2009,07,03,09,57,18.30
2009,07,03,09,58,18.30
2009,07,03,09,59,18.30
2009,07,03,10,00,18.30
2009,07,03,10,01,18.30
2009,07,03,10,02,18.30
2009,07,03,10,03,18.30
2009,07,03,10,04,18.30
2009,07,03,10,05,18.30
2009,07,03,10,06,18.30
2009,07,03,10,07,18.30
2009,07,03,10,08,18.30
2009,07,03,10,09,18.40
2009,07,03,10,10,18.50
2009,07,03,10,11,18.60
2009,07,03,10,12,18.80
2009,07,03,10,13,18.90
2009,07,03,10,14,19.00
2009,07,03,10,15,19.20
2009,07,03,10,16,19.30
2009,07,03,10,17,19.40
2009,07,03,10,18,19.50
2009,07,03,10,19,19.60
2009,07,03,10,20,19.70
2009,07,03,10,21,19.60
2009,07,03,10,22,19.60
2009,07,03,10,23,19.60
2009,07,03,10,24,19.60
2009,07,03,10,25,19.60
2009,07,03,10,26,19.60
2009,07,03,10,27,19.60
2009,07,03,10,28,19.60
2009,07,03,10,29,19.70
2009,07,03,10,30,19.70
2009,07,03,10,31,19.80
2009,07,03,10,32,19.90
2009,07,03,10,33,20.00
2009,07,03,10,34,20.00
2009,07,03,10,35,20.10
2009,07,03,10,36,20.20
2009,07,03,10,37,20.40
2009,07,03,10,38,20.50
2009,07,03,10,39,20.60
2009,07,03,10,40,20.70
2009,07,03,10,41,20.90
2009,07,03,10,42,21.10
2009,07,03,10,43,21.20
2009,07,03,10,44,21.30
2009,07,03,10,45,21.40
2009,07,03,10,46,21.50
2009,07,03,10,47,21.60
2009,07,03,10,48,21.70
2009,07,03,10,49,21.70
2009,07,03,10,50,21.80
2009,07,03,10,51,21.80
2009,07,03,10,52,21.80
2009,07,03,10,53,21.80
2009,07,03,10,54,21.80
2009,07,03,10,55,21.80
2009,07,03,10,56,21.80
2009,07,03,10,57,21.70
2009,07,03,10,58,21.70
2009,07,03,10,59,21.70
2009,07,03,11,00,21.70
2009,07,03,11,01,21.80
2009,07,03,11,02,21.90
2009,07,03,11,03,22.00
2009,07,03,11,04,22.10
2009,07,03,11,05,22.30
2009,07,03,11,06,22.40
2009,07,03,11,07,22.50
2009,07,03,11,08,22.60
2009,07,03,11,09,22.70
2009,07,03,11,10,22.80
2009,07,03,11,11,22.80
2009,07,03,11,12,22.90
2009,07,03,11,13,23.00
2009,07,03,11,14,23.00
2009,07,03,11,15,22.90
2009,07,03,11,16,22.90
2009,07,03,11,17,22.80
2009,07,03,11,18,22.70
2009,07,03,11,19,22.60
2009,07,03,11,20,22.60
2009,07,03,11,21,22.50
2009,07,03,11,22,22.50
2009,07,03,11,23,22.50
2009,07,03,11,24,22.50
2009,07,03,11,25,22.50
2009,07,03,11,26,22.60
2009,07,03,11,27,22.60
2009,07,03,11,28,22.60
2009,07,03,11,29,22.70
2009,07,03,11,30,22.70
2009,07,03,11,31,22.70
2009,07,03,11,32,22.70
2009,07,03,11,33,22.70
2009,07,03,11,34,22.70
2009,07,03,11,35,22.60
2009,07,03,11,36,22.70
2009,07,03,11,37,22.80
2009,07,03,11,38,22.80
2009,07,03,11,39,22.90
2009,07,03,11,40,22.90
2009,07,03,11,41,23.00
2009,07,03,11,42,23.00
2009,07,03,11,43,23.10
2009,07,03,11,44,23.10
2009,07,03,11,45,23.10
2009,07,03,11,46,23.20
2009,07,03,11,47,23.30
2009,07,03,11,48,23.30
2009,07,03,11,49,23.30
2009,07,03,11,50,23.30
2009,07,03,11,51,23.30
2009,07,03,11,52,23.30
2009,07,03,11,53,23.30
2009,07,03,11,54,23.30
2009,07,03,11,55,23.40
2009,07,03,11,56,23.40
2009,07,03,11,57,23.40
2009,07,03,11,58,23.50
2009,07,03,11,59,23.50
2009,07,03,12,00,23.50
2009,07,03,12,01,23.50
2009,07,03,12,02,23.60
2009,07,03,12,03,23.60
2009,07,03,12,04,23.60
2009,07,03,12,05,23.60
2009,07,03,12,06,23.60
2009,07,03,12,07,23.70
2009,07,03,12,08,23.70
2009,07,03,12,09,23.80
2009,07,03,12,10,23.80
2009,07,03,12,11,23.90
2009,07,03,12,12,23.90
2009,07,03,12,13,24.00
2009,07,03,12,14,24.10
2009,07,03,12,15,24.10
2009,07,03,12,16,24.20
2009,07,03,12,17,24.20
2009,07,03,12,18,24.30
2009,07,03,12,19,24.10
2009,07,03,12,20,24.00
2009,07,03,12,21,23.90
2009,07,03,12,22,23.70
2009,07,03,12,23,23.60
2009,07,03,12,24,23.40
2009,07,03,12,25,23.30
2009,07,03,12,26,23.10
2009,07,03,12,27,23.00
2009,07,03,12,28,23.00
2009,07,03,12,29,22.90
2009,07,03,12,30,22.90
2009,07,03,12,31,22.90
2009,07,03,12,32,22.90
2009,07,03,12,33,22.80
2009,07,03,12,34,22.80
2009,07,03,12,35,22.80
2009,07,03,12,36,22.70
2009,07,03,12,37,22.70
2009,07,03,12,38,22.60
2009,07,03,12,39,22.60
2009,07,03,12,40,22.50
2009,07,03,12,41,22.50
2009,07,03,12,42,22.60
2009,07,03,12,43,22.70
2009,07,03,12,44,22.80
2009,07,03,12,45,22.90
2009,07,03,12,46,23.00
2009,07,03,12,47,23.20
2009,07,03,12,48,23.30
2009,07,03,12,49,23.40
2009,07,03,12,50,23.60
2009,07,03,12,51,23.70
2009,07,03,12,52,23.80
2009,07,03,12,53,23.90
2009,07,03,12,54,24.00
2009,07,03,12,55,24.10
2009,07,03,12,56,24.20
2009,07,03,12,57,24.30
2009,07,03,12,58,24.30
2009,07,03,12,59,24.40
2009,07,03,13,00,24.50
2009,07,03,13,01,24.60
2009,07,03,13,02,24.60
2009,07,03,13,03,24.60
2009,07,03,13,04,24.70
2009,07,03,13,05,24.60
2009,07,03,13,06,24.70
2009,07,03,13,07,24.70
2009,07,03,13,08,24.70
2009,07,03,13,09,24.70
2009,07,03,13,10,24.70
2009,07,03,13,11,24.80
2009,07,03,13,12,24.80
2009,07,03,13,13,24.90
2009,07,03,13,14,24.90
2009,07,03,13,15,25.00
2009,07,03,13,16,25.00
2009,07,03,13,17,25.00
2009,07,03,13,18,25.10
2009,07,03,13,19,25.10
2009,07,03,13,20,25.10
2009,07,03,13,21,25.00
2009,07,03,13,22,25.00
2009,07,03,13,23,24.90
2009,07,03,13,24,24.90
2009,07,03,13,25,24.90
2009,07,03,13,26,24.90
2009,07,03,13,27,25.00
2009,07,03,13,28,25.10
2009,07,03,13,29,25.10
2009,07,03,13,30,25.20
2009,07,03,13,31,25.20
2009,07,03,13,32,25.30
2009,07,03,13,33,25.30
2009,07,03,13,34,25.40
2009,07,03,13,35,25.40
2009,07,03,13,36,25.40
2009,07,03,13,37,25.40
2009,07,03,13,38,25.40
2009,07,03,13,39,25.40
2009,07,03,13,40,25.40
2009,07,03,13,41,25.40
2009,07,03,13,42,25.50
2009,07,03,13,43,25.50
2009,07,03,13,44,25.60
2009,07,03,13,45,25.70
2009,07,03,13,46,25.80
2009,07,03,13,47,25.80
2009,07,03,13,48,25.80
2009,07,03,13,49,25.90
2009,07,03,13,50,25.90
2009,07,03,13,51,25.80
2009,07,03,13,52,25.70
2009,07,03,13,53,25.60
2009,07,03,13,54,25.60
2009,07,03,13,55,25.60
2009,07,03,13,56,25.50
2009,07,03,13,57,25.50
2009,07,03,13,58,25.40
2009,07,03,13,59,25.40
2009,07,03,14,00,25.40
2009,07,03,14,01,25.40
2009,07,03,14,02,25.40
2009,07,03,14,03,25.40
2009,07,03,14,04,25.30
2009,07,03,14,05,25.20
2009,07,03,14,06,25.20
2009,07,03,14,07,25.20
2009,07,03,14,08,25.20
2009,07,03,14,09,25.20
2009,07,03,14,10,25.30
2009,07,03,14,11,25.30
2009,07,03,14,12,25.40
2009,07,03,14,13,25.50
2009,07,03,14,14,25.60
2009,07,03,14,15,25.60
2009,07,03,14,16,25.50
2009,07,03,14,17,25.40
2009,07,03,14,18,25.30
2009,07,03,14,19,25.30
2009,07,03,14,20,25.10
2009,07,03,14,21,25.00
2009,07,03,14,22,24.90
2009,07,03,14,23,24.80
2009,07,03,14,24,24.70
2009,07,03,14,25,24.60
2009,07,03,14,26,24.60
2009,07,03,14,27,24.70
2009,07,03,14,28,24.70
2009,07,03,14,29,24.80
2009,07,03,14,30,24.80
2009,07,03,14,31,24.80
2009,07,03,14,32,24.80
2009,07,03,14,33,24.90
2009,07,03,14,34,24.90
2009,07,03,14,35,24.90
2009,07,03,14,36,24.90
2009,07,03,14,37,24.90
2009,07,03,14,38,24.90
2009,07,03,14,39,24.90
2009,07,03,14,40,24.90
2009,07,03,14,41,24.90
2009,07,03,14,42,24.90
2009,07,03,14,43,24.90
2009,07,03,14,44,24.90
2009,07,03,14,45,25.00
2009,07,03,14,46,25.10
2009,07,03,14,47,25.10
2009,07,03,14,48,25.10
2009,07,03,14,49,25.10
2009,07,03,14,50,25.00
2009,07,03,14,51,25.00
2009,07,03,14,52,25.00
2009,07,03,14,53,24.90
2009,07,03,14,54,24.80
2009,07,03,14,55,24.60
2009,07,03,14,56,24.50
2009,07,03,14,57,24.50
2009,07,03,14,58,24.40
2009,07,03,14,59,24.40
2009,07,03,15,00,24.40
2009,07,03,15,01,24.50
2009,07,03,15,02,24.60
2009,07,03,15,03,24.60
2009,07,03,15,04,24.70
2009,07,03,15,05,24.80
2009,07,03,15,06,24.80
2009,07,03,15,07,24.90
2009,07,03,15,08,24.90
2009,07,03,15,09,24.90
2009,07,03,15,10,24.90
2009,07,03,15,11,24.90
2009,07,03,15,12,24.90
2009,07,03,15,13,24.90
2009,07,03,15,14,25.00
2009,07,03,15,15,25.00
2009,07,03,15,16,25.10
2009,07,03,15,17,25.10
2009,07,03,15,18,25.10
2009,07,03,15,19,25.20
2009,07,03,15,20,25.30
2009,07,03,15,21,25.30
2009,07,03,15,22,25.40
2009,07,03,15,23,25.40
2009,07,03,15,24,25.50
2009,07,03,15,25,25.60
2009,07,03,15,26,25.70
2009,07,03,15,27,25.80
2009,07,03,15,28,25.80
2009,07,03,15,29,25.80
2009,07,03,15,30,25.80
2009,07,03,15,31,25.90
2009,07,03,15,32,25.80
2009,07,03,15,33,25.80
2009,07,03,15,34,25.80
2009,07,03,15,35,25.90
2009,07,03,15,36,25.90
2009,07,03,15,37,25.90
2009,07,03,15,38,26.00
2009,07,03,15,39,26.10
2009,07,03,15,40,26.20
2009,07,03,15,41,26.10
2009,07,03,15,42,26.10
2009,07,03,15,43,26.10
2009,07,03,15,44,26.10
2009,07,03,15,45,26.00
2009,07,03,15,46,26.00
2009,07,03,15,47,25.90
2009,07,03,15,48,25.90
2009,07,03,15,49,25.90
2009,07,03,15,50,25.80
2009,07,03,15,51,25.80
2009,07,03,15,52,25.90
2009,07,03,15,53,25.90
2009,07,03,15,54,25.90
2009,07,03,15,55,26.00
2009,07,03,15,56,26.00
2009,07,03,15,57,26.00
2009,07,03,15,58,26.00
2009,07,03,15,59,26.00
2009,07,03,16,00,26.00
2009,07,03,16,01,25.90
2009,07,03,16,02,25.90
2009,07,03,16,03,25.80
2009,07,03,16,04,25.70
2009,07,03,16,05,25.60
2009,07,03,16,06,25.50
2009,07,03,16,07,25.50
2009,07,03,16,08,25.40
2009,07,03,16,09,25.30
2009,07,03,16,10,25.20
2009,07,03,16,11,25.10
2009,07,03,16,12,25.00
2009,07,03,16,13,24.80
2009,07,03,16,14,24.60
2009,07,03,16,15,24.50
2009,07,03,16,16,24.50
2009,07,03,16,17,24.50
2009,07,03,16,18,24.40
2009,07,03,16,19,24.40
2009,07,03,16,20,24.30
2009,07,03,16,21,24.30
2009,07,03,16,22,24.30
2009,07,03,16,23,24.30
2009,07,03,16,24,24.20
2009,07,03,16,25,24.10
2009,07,03,16,26,24.10
2009,07,03,16,27,24.20
2009,07,03,16,28,24.10
2009,07,03,16,29,24.10
2009,07,03,16,30,24.10
2009,07,03,16,31,24.10
2009,07,03,16,32,24.10
2009,07,03,16,33,24.10
2009,07,03,16,34,24.20
2009,07,03,16,35,24.20
2009,07,03,16,36,24.30
2009,07,03,16,37,24.40
2009,07,03,16,38,24.50
2009,07,03,16,39,24.50
2009,07,03,16,40,24.40
2009,07,03,16,41,24.40
2009,07,03,16,42,24.30
2009,07,03,16,43,24.20
2009,07,03,16,44,24.00
2009,07,03,16,45,23.90
2009,07,03,16,46,23.80
2009,07,03,16,47,23.70
2009,07,03,16,48,23.50
2009,07,03,16,49,23.30
2009,07,03,16,50,23.30
2009,07,03,16,51,23.30
2009,07,03,16,52,23.30
2009,07,03,16,53,23.40
2009,07,03,16,54,23.40
2009,07,03,16,55,23.50
2009,07,03,16,56,23.50
2009,07,03,16,57,23.60
2009,07,03,16,58,23.70
2009,07,03,16,59,23.80
2009,07,03,17,00,23.80
2009,07,03,17,01,23.80
2009,07,03,17,02,23.80
2009,07,03,17,03,23.80
2009,07,03,17,04,23.70
2009,07,03,17,05,23.70
2009,07,03,17,06,23.60
2009,07,03,17,07,23.50
2009,07,03,17,08,23.50
2009,07,03,17,09,23.60
2009,07,03,17,10,23.70
2009,07,03,17,11,23.70
2009,07,03,17,12,23.70
2009,07,03,17,13,23.70
2009,07,03,17,14,23.60
2009,07,03,17,15,23.50
2009,07,03,17,16,23.40
2009,07,03,17,17,23.30
2009,07,03,17,18,23.30
2009,07,03,17,19,23.30